DW2004 Weather Reports


Display with metric or nautical units.
time (UTC)temp
F
wind
direction
speed
MPH
gust
MPH
rain 1hr
in
rain 24hr
in
rain mn
in
humidity
%
barometer
mb
20260902171506 94 94 0.0 4.0 0.00 0.00 0.00 50 1016.1
20260902171002 94 95 1.0 4.0 0.00 0.00 0.00 50 1016.2
20260902170502 94 94 0.0 3.0 0.00 0.00 0.00 51 1016.3
20260902165503 94 109 1.0 5.0 0.00 0.00 0.00 51 1016.3
20260902164506 93 133 0.0 5.0 0.00 0.00 0.00 52 1016.6
20260902164002 92 142 0.0 5.0 0.00 0.00 0.00 52 1016.6
20260902163503 91 140 1.0 7.0 0.00 0.00 0.00 53 1016.6
20260902163006 92 132 1.0 7.0 0.00 0.00 0.00 52 1016.6
20260902162502 91 39 1.0 6.0 0.00 0.00 0.00 52 1016.7
20260902162002 91 92 1.0 6.0 0.00 0.00 0.00 53 1016.7
20260902161506 92 78 0.0 6.0 0.00 0.00 0.00 53 1016.7
20260902161002 91 90 0.0 4.0 0.00 0.00 0.00 52 1016.7
20260902160502 91 88 1.0 4.0 0.00 0.00 0.00 52 1016.7
20260902160009 91 93 1.0 5.0 0.00 0.00 0.00 55 1016.7
20260902155502 91 98 1.0 6.0 0.00 0.00 0.00 55 1016.7
20260902155002 91 161 1.0 6.0 0.00 0.00 0.00 55 1016.6
20260902154505 90 70 0.0 5.0 0.00 0.00 0.00 57 1016.6
20260902153502 90 75 0.0 4.0 0.00 0.00 0.00 58 1016.6
20260902152503 89 107 0.0 7.0 0.00 0.00 0.00 59 1016.6
20260902151002 89 75 1.0 3.0 0.00 0.00 0.00 59 1016.5
20260902150502 88 80 0.0 7.0 0.00 0.00 0.00 59 1016.5
20260902150008 88 90 0.0 7.0 0.00 0.00 0.00 59 1016.4
20260902145002 89 82 0.0 3.0 0.00 0.00 0.00 59 1016.5
20260902144505 88 81 1.0 3.0 0.00 0.00 0.00 58 1016.5
20260902144002 88 91 0.0 3.0 0.00 0.00 0.00 59 1016.5
20260902143502 88 100 0.0 2.0 0.00 0.00 0.00 59 1016.6
20260902143005 88 100 0.0 4.0 0.00 0.00 0.00 60 1016.5
20260902142503 88 99 0.0 4.0 0.00 0.00 0.00 61 1016.5
20260902141506 87 121 0.0 4.0 0.00 0.00 0.00 62 1016.6
20260902140502 87 114 0.0 2.0 0.00 0.00 0.00 61 1016.5
20260902140007 87 118 0.0 2.0 0.00 0.00 0.00 61 1016.4
20260902135002 86 134 1.0 4.0 0.00 0.00 0.00 62 1016.5
20260902134506 86 145 0.0 4.0 0.00 0.00 0.00 63 1016.4
20260902133502 86 145 0.0 3.0 0.00 0.00 0.00 63 1016.4
20260902133006 86 145 0.0 2.0 0.00 0.00 0.00 63 1016.3
20260902132502 86 145 0.0 1.0 0.00 0.00 0.00 65 1016.3
20260902132002 85 145 0.0 1.0 0.00 0.00 0.00 66 1016.3
20260902131506 84 145 0.0 3.0 0.00 0.00 0.00 66 1016.3
20260902131002 84 145 0.0 3.0 0.00 0.00 0.00 67 1016.3
20260902125501 81 145 0.0 0.0 0.00 0.00 0.00 72 1016.1
20260902124505 81 145 0.0 0.0 0.00 0.00 0.00 73 1016.1
20260902124002 80 145 0.0 0.0 0.00 0.00 0.00 73 1016.0
20260902123500 80 145 0.0 0.0 0.00 0.00 0.00 73 1016.0
20260902123003 80 145 0.0 0.0 0.00 0.00 0.00 73 1015.9
20260902122502 80 145 0.0 0.0 0.00 0.00 0.00 73 1015.9
20260902122001 79 145 0.0 0.0 0.00 0.00 0.00 73 1015.8
20260902121504 80 145 0.0 0.0 0.00 0.00 0.00 73 1015.7
20260902121001 80 145 0.0 0.0 0.00 0.00 0.00 73 1015.7
20260902120501 80 145 0.0 0.0 0.00 0.00 0.00 72 1015.7
20260902120006 80 145 0.0 0.0 0.00 0.00 0.00 72 1015.6
20260902115501 80 145 0.0 0.0 0.00 0.00 0.00 72 1015.7
20260902115001 80 145 0.0 0.0 0.00 0.00 0.00 71 1015.7
20260902114503 81 145 0.0 0.0 0.00 0.00 0.00 71 1015.6
20260902114001 81 145 0.0 0.0 0.00 0.00 0.00 71 1015.7
20260902113004 81 145 0.0 0.0 0.00 0.00 0.00 70 1015.7
20260902112501 81 145 0.0 0.0 0.00 0.00 0.00 70 1015.7
20260902112001 81 145 0.0 0.0 0.00 0.00 0.00 70 1015.8
20260902111504 81 145 0.0 1.0 0.00 0.00 0.00 70 1015.8
20260902110501 81 145 0.0 2.0 0.00 0.00 0.00 69 1015.8
20260902110008 82 145 0.0 2.0 0.00 0.00 0.00 69 1015.8
20260902105501 81 145 0.0 1.0 0.00 0.00 0.00 69 1015.7
20260902105000 81 145 0.0 1.0 0.00 0.00 0.00 69 1015.7
20260902104504 81 145 0.0 1.0 0.00 0.00 0.00 69 1015.7
20260902104000 81 145 0.0 1.0 0.00 0.00 0.00 69 1015.7
20260902103500 81 145 0.0 1.0 0.00 0.00 0.00 69 1015.7
20260902103003 81 145 0.0 1.0 0.00 0.00 0.00 69 1015.6
20260902102500 81 145 0.0 0.0 0.00 0.00 0.00 69 1015.5
20260902102000 81 145 0.0 0.0 0.00 0.00 0.00 68 1015.6
20260902101504 81 145 0.0 0.0 0.00 0.00 0.00 68 1015.7
20260902101001 82 145 0.0 0.0 0.00 0.00 0.00 68 1015.6
20260902100501 82 145 0.0 0.0 0.00 0.00 0.00 67 1015.5
20260902100005 82 145 0.0 0.0 0.00 0.00 0.00 67 1015.6
20260902095500 82 145 0.0 0.0 0.00 0.00 0.00 66 1015.5
20260902095001 82 145 0.0 0.0 0.00 0.00 0.00 66 1015.5
20260902094503 83 145 0.0 0.0 0.00 0.00 0.00 65 1015.6
20260902094000 83 145 0.0 0.0 0.00 0.00 0.00 65 1015.6
20260902093500 83 145 0.0 2.0 0.00 0.00 0.00 65 1015.6
20260902093005 83 145 0.0 2.0 0.00 0.00 0.00 65 1015.6
20260902092500 83 145 0.0 0.0 0.00 0.00 0.00 65 1015.6
20260902092002 83 145 0.0 0.0 0.00 0.00 0.00 65 1015.6
20260902091504 83 145 0.0 0.0 0.00 0.00 0.00 64 1015.6
20260902091000 84 145 0.0 0.0 0.00 0.00 0.00 64 1015.6
20260902090459 84 145 0.0 0.0 0.00 0.00 0.00 63 1015.6
20260902090007 84 145 0.0 0.0 0.00 0.00 0.00 63 1015.6
20260902085501 84 145 0.0 1.0 0.00 0.00 0.00 62 1015.6
20260902085000 84 145 0.0 2.0 0.00 0.00 0.00 62 1015.6
20260902084001 85 145 0.0 4.0 0.00 0.00 0.00 62 1015.6
20260902083500 85 145 1.0 4.0 0.00 0.00 0.00 62 1015.6
20260902083004 85 145 0.0 3.0 0.00 0.00 0.00 61 1015.6
20260902082501 85 145 0.0 3.0 0.00 0.00 0.00 61 1015.7
20260902082000 85 145 0.0 3.0 0.00 0.00 0.00 61 1015.7
20260902080501 85 145 0.0 5.0 0.00 0.00 0.00 61 1015.6
20260902080006 86 142 0.0 5.0 0.00 0.00 0.00 61 1015.6
20260902075501 86 141 0.0 8.0 0.00 0.00 0.00 61 1015.6
20260902075000 86 140 2.0 8.0 0.00 0.00 0.00 61 1015.7
20260902074000 86 183 2.0 7.0 0.00 0.00 0.00 61 1015.7
20260902073500 86 176 1.0 10.0 0.00 0.00 0.00 61 1015.7
20260902073004 86 182 1.0 10.0 0.00 0.00 0.00 60 1015.6
20260902072500 86 196 1.0 7.0 0.00 0.00 0.00 60 1015.7
20260902072001 86 202 1.0 7.0 0.00 0.00 0.00 60 1015.7
20260902071504 87 200 1.0 8.0 0.00 0.00 0.00 60 1015.7
20260902071000 87 139 1.0 7.0 0.00 0.00 0.00 60 1015.6
20260902070007 87 168 0.0 9.0 0.00 0.00 0.00 59 1015.7
20260902065000 87 222 1.0 7.0 0.00 0.00 0.00 59 1015.7
20260902064504 87 202 2.0 7.0 0.00 0.00 0.00 59 1015.7
20260902064000 87 218 2.0 8.0 0.00 0.00 0.00 59 1015.6
20260902063004 87 138 0.0 5.0 0.00 0.00 0.00 59 1015.5
20260902062459 87 149 0.0 5.0 0.00 0.00 0.00 59 1015.5
20260902062000 87 149 0.0 8.0 0.00 0.00 0.00 59 1015.5
20260902061503 87 149 1.0 8.0 0.00 0.00 0.00 59 1015.4
20260902061000 87 146 1.0 8.0 0.00 0.00 0.00 59 1015.3
20260902060500 88 165 1.0 6.0 0.00 0.00 0.00 59 1015.3
20260902055505 88 165 1.0 6.0 0.00 0.00 0.00 58 1015.2
20260902055005 88 155 0.0 7.0 0.00 0.00 0.00 57 1015.1
20260902054509 88 169 2.0 7.0 0.00 0.00 0.00 57 1015.0
20260902054005 88 175 1.0 12.0 0.00 0.00 0.00 56 1014.9
20260902053008 88 103 1.0 4.0 0.00 0.00 0.00 56 1015.0
20260902052005 89 111 0.0 4.0 0.00 0.00 0.00 56 1015.0
20260902051508 89 106 1.0 4.0 0.00 0.00 0.00 56 1014.9
20260902051005 89 111 1.0 8.0 0.00 0.00 0.00 57 1014.8
20260902050505 89 220 2.0 8.0 0.00 0.00 0.00 60 1014.7
20260902050014 88 125 0.0 3.0 0.00 0.00 0.00 63 1014.8
20260902045505 88 98 0.0 1.0 0.00 0.00 0.00 62 1014.8
20260902045007 88 98 0.0 0.0 0.00 0.00 0.00 61 1014.8
20260902044508 88 98 0.0 0.0 0.00 0.00 0.00 60 1014.7
20260902044005 88 98 0.0 0.0 0.00 0.00 0.00 59 1014.7
20260902043505 88 98 0.0 0.0 0.00 0.00 0.00 58 1014.6
20260902043008 89 98 0.0 0.0 0.00 0.00 0.00 58 1014.7
20260902042506 89 98 0.0 0.0 0.00 0.00 0.00 57 1014.7
20260902042005 89 98 0.0 0.0 0.00 0.00 0.00 57 1014.7
20260902041508 89 98 0.0 0.0 0.00 0.00 0.00 57 1014.6
20260902041005 89 98 0.0 0.0 0.00 0.00 0.00 57 1014.6
20260902040010 89 98 0.0 0.0 0.00 0.00 0.00 57 1014.7
20260902035005 89 98 0.0 0.0 0.00 0.00 0.00 58 1014.7
20260902034005 89 98 0.0 0.0 0.00 0.00 0.00 58 1014.7
20260902033505 89 98 0.0 0.0 0.00 0.00 0.00 59 1014.6
20260902033009 89 98 0.0 0.0 0.00 0.00 0.00 59 1014.6
20260902032505 90 98 0.0 0.0 0.00 0.00 0.00 58 1014.6
20260902032005 90 98 0.0 0.0 0.00 0.00 0.00 58 1014.6
20260902031508 90 98 0.0 1.0 0.00 0.00 0.00 57 1014.5
20260902031005 90 98 0.0 1.0 0.00 0.00 0.00 56 1014.4
20260902030010 90 98 0.0 1.0 0.00 0.00 0.00 55 1014.3
20260902025505 90 98 0.0 1.0 0.00 0.00 0.00 54 1014.2
20260902025005 90 98 0.0 0.0 0.00 0.00 0.00 54 1014.1
20260902024508 90 98 0.0 1.0 0.00 0.00 0.00 54 1014.1
20260902023505 91 98 0.0 0.0 0.00 0.00 0.00 55 1013.9
20260902023008 91 98 0.0 0.0 0.00 0.00 0.00 54 1013.8
20260902022505 91 98 0.0 1.0 0.00 0.00 0.00 54 1013.8
20260902022005 91 98 0.0 3.0 0.00 0.00 0.00 55 1013.7
20260902021005 92 98 0.0 2.0 0.00 0.00 0.00 55 1013.6
20260902020505 92 98 0.0 2.0 0.00 0.00 0.00 54 1013.5
20260902020010 92 96 0.0 2.0 0.00 0.00 0.00 54 1013.5
20260902015505 92 95 0.0 1.0 0.00 0.00 0.00 53 1013.4
20260902015005 92 96 0.0 2.0 0.00 0.00 0.00 52 1013.3
20260902014005 93 101 0.0 3.0 0.00 0.00 0.00 52 1013.2
20260902013504 93 115 0.0 2.0 0.00 0.00 0.00 52 1013.1
20260902013008 93 115 0.0 3.0 0.00 0.00 0.00 52 1013.2
20260902012504 93 116 0.0 3.0 0.00 0.00 0.00 51 1013.0
20260902011508 93 138 0.0 3.0 0.00 0.00 0.00 50 1013.0
20260902010505 94 138 0.0 4.0 0.00 0.00 0.00 49 1013.0
20260902010009 94 138 0.0 3.0 0.00 0.00 0.00 48 1012.9
20260902005503 94 118 0.0 3.0 0.00 0.00 0.00 48 1012.9
20260902005004 95 116 0.0 3.0 0.00 0.00 0.00 47 1012.9
20260902004507 95 121 0.0 3.0 0.00 0.00 0.00 47 1013.0
20260902004004 95 122 0.0 4.0 0.00 0.00 0.00 46 1012.9
20260902003505 96 144 0.0 4.0 0.00 0.00 0.00 45 1013.0
20260902003006 96 127 0.0 4.0 0.00 0.00 0.00 44 1013.0
20260902002504 97 132 0.0 4.0 0.00 0.00 0.00 43 1013.0
20260902002004 97 110 0.0 8.0 0.00 0.00 0.00 42 1013.1
20260902001508 97 111 0.0 8.0 0.00 0.00 0.00 41 1013.1
20260902001003 98 144 0.0 5.0 0.00 0.00 0.00 40 1013.2
20260901235004 99 150 0.0 6.0 0.00 0.00 0.00 38 1013.2
20260901234508 99 121 0.0 5.0 0.00 0.00 0.00 37 1013.3
20260901234004 99 123 1.0 4.0 0.00 0.00 0.00 38 1013.3
20260901233506 99 132 1.0 7.0 0.00 0.00 0.00 38 1013.3
20260901233009 99 115 1.0 7.0 0.00 0.00 0.00 38 1013.4
20260901232503 99 146 0.0 5.0 0.00 0.00 0.00 37 1013.4
20260901232003 100 145 1.0 8.0 0.00 0.00 0.00 36 1013.4
20260901231506 100 137 0.0 3.0 0.00 0.00 0.00 36 1013.4
20260901231004 100 122 0.0 3.0 0.00 0.00 0.00 37 1013.4
20260901230504 100 122 0.0 4.0 0.00 0.00 0.00 37 1013.5
20260901230010 100 161 1.0 4.0 0.00 0.00 0.00 37 1013.4
20260901225004 101 169 0.0 7.0 0.00 0.00 0.00 37 1013.5
20260901224508 100 155 1.0 7.0 0.00 0.00 0.00 37 1013.4
20260901224004 100 82 1.0 4.0 0.00 0.00 0.00 37 1013.5
20260901223503 101 105 0.0 3.0 0.00 0.00 0.00 37 1013.5
20260901223007 101 117 0.0 7.0 0.00 0.00 0.00 36 1013.6
20260901220504 101 119 0.0 4.0 0.00 0.00 0.00 36 1013.7
20260901220011 101 173 1.0 6.0 0.00 0.00 0.00 36 1013.7
20260901215503 101 178 1.0 10.0 0.00 0.00 0.00 36 1013.8
20260901215004 101 123 0.0 10.0 0.00 0.00 0.00 36 1013.8
20260901214510 101 143 1.0 6.0 0.00 0.00 0.00 35 1013.9
20260901214005 101 205 1.0 5.0 0.00 0.00 0.00 36 1013.9
20260901213505 102 165 1.0 4.0 0.00 0.00 0.00 35 1013.9
20260901213008 101 114 0.0 6.0 0.00 0.00 0.00 36 1013.9
20260901212504 101 175 1.0 6.0 0.00 0.00 0.00 36 1014.0
20260901212005 101 116 1.0 7.0 0.00 0.00 0.00 37 1014.0
20260901211004 101 229 2.0 8.0 0.00 0.00 0.00 36 1014.1
20260901210504 101 204 0.0 5.0 0.00 0.00 0.00 36 1014.0
20260901210011 100 80 0.0 6.0 0.00 0.00 0.00 36 1014.1
20260901205504 100 103 1.0 7.0 0.00 0.00 0.00 37 1014.3
20260901204509 100 132 1.0 5.0 0.00 0.00 0.00 37 1014.4
20260901204005 100 138 1.0 8.0 0.00 0.00 0.00 37 1014.4
20260901203504 100 178 2.0 8.0 0.00 0.00 0.00 38 1014.5
20260901203008 101 175 0.0 5.0 0.00 0.00 0.00 38 1014.5
20260901201509 100 206 2.0 7.0 0.00 0.00 0.00 38 1014.7
20260901201003 99 244 1.0 8.0 0.00 0.00 0.00 39 1014.8
20260901200504 98 138 1.0 8.0 0.00 0.00 0.00 40 1014.8
20260901200009 99 134 3.0 7.0 0.00 0.00 0.00 40 1015.0
20260901195004 99 144 1.0 7.0 0.00 0.00 0.00 41 1015.1
20260901193008 100 117 1.0 8.0 0.00 0.00 0.00 40 1015.3
20260901192503 99 99 0.0 8.0 0.00 0.00 0.00 40 1015.4
20260901192003 99 188 1.0 8.0 0.00 0.00 0.00 41 1015.4
20260901191507 99 117 1.0 7.0 0.00 0.00 0.00 41 1015.5
20260901191003 99 186 1.0 9.0 0.00 0.00 0.00 41 1015.5
20260901190503 99 208 0.0 7.0 0.00 0.00 0.00 42 1015.6
20260901190008 99 189 0.0 8.0 0.00 0.00 0.00 42 1015.7
20260901185008 98 111 1.0 8.0 0.00 0.00 0.00 43 1015.9
20260901184507 98 111 2.0 8.0 0.00 0.00 0.00 42 1015.9
20260901184002 98 177 1.0 6.0 0.00 0.00 0.00 42 1016.1
20260901183007 98 132 1.0 7.0 0.00 0.00 0.00 43 1016.2
20260901182502 97 91 2.0 4.0 0.00 0.00 0.00 43 1016.2
20260901181002 98 88 1.0 9.0 0.00 0.00 0.00 43 1016.4
20260901180502 97 87 3.0 9.0 0.00 0.00 0.00 44 1016.5
20260901175502 97 105 1.0 8.0 0.00 0.00 0.00 44 1016.6
20260901175002 98 104 0.0 6.0 0.00 0.00 0.00 44 1016.8
20260901174509 97 97 2.0 5.0 0.00 0.00 0.00 45 1016.8
20260901174002 97 108 1.0 8.0 0.00 0.00 0.00 46 1016.9
20260901173006 97 123 0.0 7.0 0.00 0.00 0.00 45 1017.1
20260901172503 97 223 0.0 7.0 0.00 0.00 0.00 46 1017.1
20260901172002 98 204 1.0 6.0 0.00 0.00 0.00 45 1017.1